GW2922 Weather Reports


time (UTC)temp
C
wind
direction
speed
KPH
gust
KPH
rain 1hr
cm
rain 24hr
cm
rain mn
cm
humidity
%
barometer
mb
20260902184840 17 87 12.9 22.5 0.00 0.00 0.00 72 1005.9
20260902184335 16 204 9.7 22.5 0.00 0.00 0.00 74 1006.3
20260902183830 16 132 6.4 20.9 0.00 0.00 0.00 74 1006.3
20260902183327 16 146 8.0 12.9 0.00 0.00 0.00 74 1006.3
20260902182822 16 129 12.9 24.1 0.00 0.00 0.00 74 1006.3
20260902182319 16 147 14.5 29.0 0.00 0.00 0.00 73 1006.3
20260902181815 16 160 17.7 24.1 0.00 0.00 0.00 75 1006.6
20260902181310 16 196 12.9 20.9 0.00 0.00 0.00 75 1006.6
20260902180804 16 153 9.7 22.5 0.00 0.00 0.00 75 1006.6
20260902180300 16 108 6.4 24.1 0.00 0.00 0.00 75 1006.6
20260902175755 16 209 11.3 22.5 0.00 0.00 0.00 75 1006.6
20260902175251 16 182 12.9 17.7 0.00 0.00 0.00 76 1006.9
20260902174746 16 145 9.7 20.9 0.00 0.00 0.00 77 1006.9
20260902174242 16 163 11.3 17.7 0.00 0.00 0.00 77 1006.9
20260902173737 16 161 14.5 22.5 0.00 0.00 0.00 76 1006.6
20260902173237 16 184 6.4 17.7 0.00 0.00 0.00 77 1006.9
20260902172731 16 137 9.7 16.1 0.00 0.00 0.00 77 1006.9
20260902172226 16 179 14.5 17.7 0.00 0.00 0.00 77 1006.9
20260902171721 16 170 17.7 27.4 0.00 0.00 0.00 77 1006.9
20260902171216 16 88 3.2 27.4 0.00 0.00 0.00 77 1006.9
20260902170712 16 86 11.3 27.4 0.00 0.00 0.00 77 1006.9
20260902170208 16 121 12.9 27.4 0.00 0.00 0.00 77 1006.9
20260902165702 16 169 12.9 22.5 0.00 0.00 0.00 76 1006.9
20260902165156 16 124 11.3 27.4 0.00 0.00 0.00 75 1006.9
20260902164652 16 132 6.4 20.9 0.00 0.00 0.00 75 1006.9
20260902164150 16 185 6.4 24.1 0.00 0.00 0.00 76 1006.9
20260902163646 16 193 12.9 20.9 0.00 0.00 0.00 75 1006.9
20260902163145 16 173 8.0 30.6 0.00 0.00 0.00 75 1006.9
20260902162644 16 99 12.9 29.0 0.00 0.00 0.00 75 1006.9
20260902162139 16 139 16.1 24.1 0.00 0.00 0.00 76 1006.9
20260902161634 16 39 11.3 22.5 0.00 0.00 0.00 75 1006.9
20260902161130 16 63 6.4 24.1 0.00 0.00 0.00 75 1006.9
20260902160626 16 126 14.5 20.9 0.00 0.00 0.00 76 1007.3
20260902160120 16 196 16.1 24.1 0.00 0.00 0.00 76 1006.9
20260902155613 16 134 9.7 22.5 0.00 0.00 0.00 75 1007.3
20260902155112 16 106 11.3 35.4 0.00 0.00 0.00 76 1006.9
20260902154607 16 180 17.7 27.4 0.00 0.00 0.00 77 1006.9
20260902154103 16 133 9.7 41.8 0.00 0.00 0.00 77 1006.9
20260902153601 15 171 25.7 51.5 0.00 0.00 0.00 78 1006.6
20260902153057 15 188 8.0 30.6 0.00 0.00 0.00 79 1006.9
20260902152553 15 160 11.3 37.0 0.00 0.00 0.00 79 1006.9
20260902152048 15 167 16.1 29.0 0.00 0.00 0.00 80 1006.9
20260902151544 15 172 16.1 25.7 0.00 0.00 0.00 80 1006.9
20260902151043 15 118 11.3 22.5 0.00 0.00 0.00 81 1007.3
20260902150538 15 191 17.7 22.5 0.00 0.00 0.00 81 1007.3
20260902150034 15 91 8.0 14.5 0.00 0.00 0.00 81 1007.3
20260902145528 15 119 4.8 25.7 0.00 0.00 0.00 82 1007.3
20260902145022 15 118 17.7 33.8 0.00 0.00 0.00 82 1007.6
20260902144519 15 172 8.0 24.1 0.00 0.00 0.00 82 1007.3
20260902144014 15 100 11.3 20.9 0.00 0.00 0.00 81 1007.6
20260902143509 15 201 12.9 27.4 0.00 0.00 0.00 81 1007.3
20260902143005 15 162 6.4 24.1 0.00 0.00 0.00 82 1007.6
20260902142500 15 96 9.7 24.1 0.00 0.00 0.00 83 1007.6
20260902141955 15 164 14.5 17.7 0.00 0.00 0.00 83 1007.6
20260902141449 15 178 3.2 25.7 0.00 0.00 0.00 83 1007.6
20260902140949 14 292 14.5 29.0 0.00 0.00 0.00 83 1007.6
20260902140445 14 181 8.0 27.4 0.00 0.00 0.00 84 1007.6
20260902135939 14 141 8.0 27.4 0.00 0.00 0.00 84 1007.6
20260902135435 14 166 17.7 22.5 0.00 0.00 0.00 84 1007.6
20260902134933 14 195 14.5 20.9 0.00 0.00 0.00 85 1007.9
20260902134430 14 141 8.0 22.5 0.00 0.00 0.00 85 1007.6
20260902133924 14 165 16.1 29.0 0.00 0.00 0.00 85 1007.6
20260902133419 14 148 14.5 37.0 0.00 0.00 0.00 85 1007.6
20260902132914 14 169 20.9 37.0 0.00 0.00 0.00 85 1007.6
20260902132409 14 219 14.5 37.0 0.00 0.00 0.00 84 1007.6
20260902131904 14 142 9.7 17.7 0.00 0.00 0.00 85 1007.6
20260902131401 14 128 12.9 33.8 0.00 0.00 0.00 85 1007.6
20260902130900 14 151 17.7 30.6 0.00 0.00 0.00 85 1007.6
20260902130356 14 97 17.7 29.0 0.00 0.00 0.00 85 1007.3
20260902125850 14 193 4.8 22.5 0.00 0.00 0.00 86 1007.9
20260902125347 14 158 14.5 25.7 0.00 0.00 0.00 86 1007.6
20260902124843 14 159 16.1 24.1 0.00 0.00 0.00 85 1007.6
20260902124339 14 170 14.5 29.0 0.00 0.00 0.00 85 1007.6
20260902123833 14 49 14.5 22.5 0.00 0.00 0.00 85 1007.6
20260902123330 14 165 11.3 16.1 0.00 0.00 0.00 84 1007.6
20260902122828 14 180 12.9 17.7 0.00 0.00 0.00 83 1007.6
20260902122325 14 177 9.7 24.1 0.00 0.00 0.00 82 1007.9
20260902121824 15 182 4.8 12.9 0.00 0.00 0.00 82 1007.9
20260902121319 15 144 6.4 9.7 0.00 0.00 0.00 82 1007.9
20260902120815 14 101 11.3 22.5 0.00 0.00 0.00 82 1007.9
20260902120311 14 155 9.7 20.9 0.00 0.00 0.00 84 1007.6
20260902115805 13 116 8.0 11.3 0.00 0.00 0.00 84 1007.9
20260902115301 14 174 4.8 17.7 0.00 0.00 0.00 84 1007.9
20260902114757 14 121 6.4 12.9 0.00 0.00 0.00 84 1007.9
20260902114253 14 155 9.7 12.9 0.00 0.00 0.00 83 1007.9
20260902113747 14 182 9.7 16.1 0.00 0.00 0.00 82 1007.9
20260902113243 14 83 11.3 16.1 0.00 0.00 0.00 82 1008.3
20260902112742 14 200 9.7 12.9 0.00 0.00 0.00 82 1008.3
20260902112239 14 117 4.8 16.1 0.00 0.00 0.00 82 1008.3
20260902111734 14 164 4.8 16.1 0.00 0.00 0.00 82 1008.6
20260902111231 14 210 6.4 11.3 0.00 0.00 0.00 82 1008.6
20260902110726 14 179 4.8 11.3 0.00 0.00 0.00 82 1008.6
20260902110222 14 151 4.8 14.5 0.00 0.00 0.00 81 1009.0
20260902105721 14 78 6.4 12.9 0.00 0.00 0.00 81 1009.0
20260902105217 14 114 6.4 6.4 0.00 0.00 0.00 82 1008.6
20260902104712 14 160 4.8 14.5 0.00 0.00 0.00 81 1009.0
20260902104208 14 112 1.6 12.9 0.00 0.00 0.00 81 1009.0
20260902103707 15 137 9.7 11.3 0.00 0.00 0.00 81 1009.0
20260902103202 14 163 3.2 9.7 0.00 0.00 0.00 80 1009.0
20260902102658 15 124 9.7 14.5 0.00 0.00 0.00 80 1009.0
20260902102155 15 122 9.7 14.5 0.00 0.00 0.00 80 1009.0
20260902101650 15 151 8.0 11.3 0.00 0.00 0.00 80 1009.0
20260902101150 15 135 4.8 9.7 0.00 0.00 0.00 79 1009.0
20260902100644 15 106 4.8 11.3 0.00 0.00 0.00 78 1009.0
20260902100139 15 133 8.0 11.3 0.00 0.00 0.00 79 1008.6
20260902095638 14 113 3.2 9.7 0.00 0.00 0.00 80 1009.0
20260902095138 14 83 6.4 9.7 0.00 0.00 0.00 81 1009.0
20260902094633 13 134 3.2 4.8 0.00 0.00 0.00 82 1009.0
20260902094129 13 135 0.0 0.0 0.00 0.00 0.00 82 1009.0
20260902093623 13 117 3.2 4.8 0.00 0.00 0.00 82 1009.3
20260902093112 13 106 1.6 4.8 0.00 0.00 0.00 82 1009.3
20260902092607 13 152 3.2 6.4 0.00 0.00 0.00 83 1009.0
20260902092102 13 126 3.2 6.4 0.00 0.00 0.00 84 1009.3
20260902091557 13 135 1.6 4.8 0.00 0.00 0.00 84 1009.3
20260902091053 14 124 3.2 6.4 0.00 0.00 0.00 84 1009.3
20260902090549 14 157 4.8 4.8 0.00 0.00 0.00 84 1009.6
20260902090048 14 174 1.6 3.2 0.00 0.00 0.00 83 1009.6
20260902085548 14 176 3.2 11.3 0.00 0.00 0.00 83 1009.6
20260902085043 14 112 1.6 9.7 0.00 0.00 0.00 83 1009.6
20260902084539 14 118 0.0 4.8 0.00 0.00 0.00 84 1009.6
20260902084034 13 184 4.8 12.9 0.00 0.00 0.00 85 1009.6
20260902083524 13 121 4.8 12.9 0.00 0.00 0.00 88 1010.0
20260902083019 13 184 4.8 9.7 0.00 0.00 0.00 88 1009.6
20260902082515 13 101 1.6 4.8 0.00 0.00 0.00 89 1010.0
20260902082011 13 116 3.2 6.4 0.00 0.00 0.00 89 1010.0
20260902081507 13 118 3.2 6.4 0.00 0.00 0.00 89 1010.0
20260902081001 13 164 3.2 4.8 0.00 0.00 0.00 89 1010.0
20260902080457 13 184 6.4 9.7 0.00 0.00 0.00 89 1010.3
20260902075957 13 184 1.6 6.4 0.00 0.00 0.00 89 1010.0
20260902075453 13 162 1.6 3.2 0.00 0.00 0.00 89 1010.3
20260902074949 13 198 3.2 4.8 0.00 0.00 0.00 89 1010.3
20260902074444 13 133 3.2 3.2 0.00 0.00 0.00 89 1010.3
20260902073938 13 159 4.8 9.7 0.00 0.00 0.00 88 1010.3
20260902073434 13 161 3.2 4.8 0.00 0.00 0.00 88 1010.3
20260902072931 13 153 3.2 11.3 0.00 0.00 0.00 88 1010.3
20260902072426 13 155 6.4 9.7 0.00 0.00 0.00 88 1010.3
20260902071922 13 171 3.2 6.4 0.00 0.00 0.00 88 1010.3
20260902071421 13 130 4.8 4.8 0.00 0.00 0.00 88 1010.3
20260902070918 13 137 3.2 4.8 0.00 0.00 0.00 88 1010.7
20260902070414 13 124 0.0 6.4 0.00 0.00 0.00 88 1010.3
20260902065912 13 91 3.2 4.8 0.00 0.00 0.00 88 1010.7
20260902065408 13 134 3.2 4.8 0.00 0.00 0.00 88 1010.3
20260902064903 13 192 3.2 6.4 0.00 0.00 0.00 88 1010.7
20260902064359 13 114 3.2 4.8 0.00 0.00 0.00 88 1010.7
20260902063854 13 168 3.2 9.7 0.00 0.00 0.00 88 1010.7
20260902063348 13 175 9.7 11.3 0.00 0.00 0.00 88 1010.7
20260902062842 13 152 4.8 12.9 0.00 0.00 0.00 87 1010.7
20260902062336 13 120 6.4 6.4 0.00 0.00 0.00 87 1010.7
20260902061831 13 152 3.2 6.4 0.00 0.00 0.00 87 1010.7
20260902061326 13 161 6.4 9.7 0.00 0.00 0.00 87 1010.7
20260902060823 13 99 3.2 4.8 0.00 0.00 0.00 87 1010.7
20260902060318 13 148 1.6 3.2 0.00 0.00 0.00 86 1011.0
20260902055813 14 160 3.2 3.2 0.00 0.00 0.00 85 1010.7
20260902055309 14 168 1.6 3.2 0.00 0.00 0.00 85 1010.7
20260902054804 14 156 3.2 3.2 0.00 0.00 0.00 84 1011.0
20260902054300 15 117 1.6 6.4 0.00 0.00 0.00 84 1011.0
20260902053755 15 124 0.0 3.2 0.00 0.00 0.00 83 1011.0
20260902053254 15 172 4.8 4.8 0.00 0.00 0.00 82 1011.0
20260902052748 15 102 3.2 3.2 0.00 0.00 0.00 82 1011.3
20260902052243 15 156 3.2 4.8 0.00 0.00 0.00 82 1011.3
20260902051738 15 114 1.6 4.8 0.00 0.00 0.00 82 1011.3
20260902051232 15 159 1.6 1.6 0.00 0.00 0.00 83 1011.3
20260902050727 15 159 0.0 1.6 0.00 0.00 0.00 83 1011.3
20260902050223 15 189 0.0 3.2 0.00 0.00 0.00 84 1011.3
20260902045723 15 191 0.0 0.0 0.00 0.00 0.00 84 1011.3
20260902045219 15 191 0.0 1.6 0.00 0.00 0.00 84 1011.3
20260902044714 15 191 0.0 0.0 0.00 0.00 0.00 83 1011.3
20260902044209 15 191 0.0 0.0 0.00 0.00 0.00 83 1011.3
20260902043704 15 191 0.0 0.0 0.00 0.00 0.00 83 1011.3
20260902043200 15 191 0.0 1.6 0.00 0.00 0.00 82 1011.3
20260902042659 15 191 0.0 0.0 0.00 0.00 0.00 82 1011.3
20260902042154 15 191 0.0 0.0 0.00 0.00 0.00 81 1011.3
20260902041654 15 191 0.0 1.6 0.00 0.00 0.00 81 1011.3
20260902041148 15 191 0.0 0.0 0.00 0.00 0.00 80 1011.3
20260902040642 15 191 0.0 1.6 0.00 0.00 0.00 81 1011.3
20260902040138 15 198 0.0 0.0 0.00 0.00 0.00 82 1011.3
20260902035636 15 198 0.0 0.0 0.00 0.00 0.00 82 1011.3
20260902035132 15 198 0.0 0.0 0.00 0.00 0.00 81 1011.3
20260902034631 15 198 0.0 0.0 0.00 0.00 0.00 81 1011.3
20260902034130 15 198 0.0 0.0 0.00 0.00 0.00 80 1011.3
20260902033630 15 198 0.0 0.0 0.00 0.00 0.00 80 1011.3
20260902033125 15 198 0.0 0.0 0.00 0.00 0.00 80 1011.3
20260902032623 16 198 0.0 0.0 0.00 0.00 0.00 79 1011.3
20260902032118 16 198 0.0 0.0 0.00 0.00 0.00 78 1011.3
20260902031613 16 198 0.0 0.0 0.00 0.00 0.00 78 1011.3
20260902031110 16 198 0.0 0.0 0.00 0.00 0.00 77 1011.3
20260902030609 16 198 0.0 0.0 0.00 0.00 0.00 77 1011.3
20260902030104 16 198 0.0 0.0 0.00 0.00 0.00 77 1011.3
20260902025603 16 198 0.0 0.0 0.00 0.00 0.00 77 1011.3
20260902025059 16 198 0.0 1.6 0.00 0.00 0.00 76 1011.3
20260902024554 16 198 0.0 0.0 0.00 0.00 0.00 76 1011.3
20260902024054 16 198 0.0 0.0 0.00 0.00 0.00 76 1011.3
20260902023550 16 198 0.0 0.0 0.00 0.00 0.00 76 1011.3
20260902023045 16 198 0.0 0.0 0.00 0.00 0.00 76 1011.3
20260902022544 16 198 0.0 0.0 0.00 0.00 0.00 75 1011.3
20260902022041 17 198 0.0 0.0 0.00 0.00 0.00 75 1011.3
20260902021536 17 198 0.0 0.0 0.00 0.00 0.00 75 1011.3
20260902021031 17 198 0.0 0.0 0.00 0.00 0.00 74 1011.3
20260902020526 17 198 0.0 0.0 0.00 0.00 0.00 74 1011.3
20260902020022 17 198 0.0 0.0 0.00 0.00 0.00 74 1011.8
20260902015518 17 198 0.0 1.6 0.00 0.00 0.00 75 1011.3
20260902015013 17 198 0.0 0.0 0.00 0.00 0.00 75 1011.8
20260902014510 17 200 0.0 1.6 0.00 0.00 0.00 75 1011.8
20260902014004 17 172 1.6 1.6 0.00 0.00 0.00 75 1011.8
20260902013458 17 94 1.6 1.6 0.00 0.00 0.00 75 1011.3
20260902012953 17 312 1.6 3.2 0.00 0.00 0.00 75 1011.8
20260902012444 17 285 3.2 3.2 0.00 0.00 0.00 75 1011.8
20260902011939 17 95 0.0 0.0 0.00 0.00 0.00 74 1011.3
20260902011435 17 107 0.0 1.6 0.00 0.00 0.00 74 1011.8
20260902010934 17 106 0.0 1.6 0.00 0.00 0.00 74 1011.8
20260902010429 17 289 1.6 1.6 0.00 0.00 0.00 74 1011.3
20260902005928 17 107 0.0 1.6 0.00 0.00 0.00 74 1011.3
20260902005427 17 105 0.0 1.6 0.00 0.00 0.00 74 1011.8
20260902004923 17 132 1.6 1.6 0.00 0.00 0.00 74 1011.8
20260902004422 17 65 3.2 4.8 0.00 0.00 0.00 74 1011.3
20260902003918 17 99 0.0 1.6 0.00 0.00 0.00 75 1011.8
20260902003413 17 102 0.0 3.2 0.00 0.00 0.00 75 1011.8
20260902002908 17 196 0.0 1.6 0.00 0.00 0.00 75 1011.8
20260902002403 17 90 1.6 1.6 0.00 0.00 0.00 75 1011.3
20260902001858 17 286 3.2 3.2 0.00 0.00 0.00 74 1011.8
20260902001353 17 99 0.0 0.0 0.00 0.00 0.00 75 1011.8
20260902000847 17 95 0.0 1.6 0.00 0.00 0.00 74 1011.8
20260902000344 17 73 0.0 1.6 0.00 0.00 0.00 74 1011.8
20260901235837 16 84 0.0 1.6 0.00 0.00 0.00 75 1011.8
20260901235336 16 65 1.6 1.6 0.00 0.00 0.00 75 1011.8
20260901234832 16 94 0.0 1.6 0.00 0.00 0.00 75 1011.8
20260901234326 16 110 0.0 1.6 0.00 0.00 0.00 75 1011.8
20260901233821 17 110 0.0 1.6 0.00 0.00 0.00 75 1011.8
20260901233317 17 288 1.6 1.6 0.00 0.00 0.00 75 1011.8
20260901232812 17 82 1.6 1.6 0.00 0.00 0.00 74 1011.8
20260901232301 17 115 0.0 4.8 0.00 0.00 0.00 75 1011.8
20260901231757 17 58 1.6 3.2 0.00 0.00 0.00 74 1011.8
20260901231248 17 104 0.0 6.4 0.00 0.00 0.00 74 1011.8
20260901230744 17 309 3.2 6.4 0.00 0.00 0.00 74 1011.3
20260901230243 17 103 0.0 3.2 0.00 0.00 0.00 74 1011.3
20260901225738 18 60 0.0 3.2 0.00 0.00 0.00 73 1011.3
20260901225233 17 110 0.0 1.6 0.00 0.00 0.00 74 1011.3
20260901224729 17 82 0.0 3.2 0.00 0.00 0.00 73 1011.3
20260901224225 17 155 1.6 3.2 0.00 0.00 0.00 73 1011.8
20260901223721 17 95 0.0 1.6 0.00 0.00 0.00 74 1011.8
20260901223215 17 87 1.6 1.6 0.00 0.00 0.00 74 1011.3
20260901222711 17 118 0.0 3.2 0.00 0.00 0.00 75 1011.3
20260901222208 17 315 1.6 6.4 0.00 0.00 0.00 75 1011.8
20260901221703 16 109 0.0 3.2 0.00 0.00 0.00 76 1011.8
20260901221159 17 79 1.6 6.4 0.00 0.00 0.00 76 1011.8
20260901220658 17 86 3.2 3.2 0.00 0.00 0.00 73 1011.8
20260901220157 17 109 0.0 6.4 0.00 0.00 0.00 74 1011.8
20260901215655 18 302 4.8 6.4 0.00 0.00 0.00 72 1011.8
20260901215150 18 106 0.0 1.6 0.00 0.00 0.00 72 1011.8
20260901214648 18 96 1.6 1.6 0.00 0.00 0.00 72 1012.1
20260901214143 18 182 1.6 3.2 0.00 0.00 0.00 73 1011.8
20260901213642 19 111 1.6 4.8 0.00 0.00 0.00 73 1011.8
20260901213137 19 106 0.0 1.6 0.00 0.00 0.00 72 1011.8
20260901212637 19 131 0.0 1.6 0.00 0.00 0.00 72 1012.1
20260901212133 19 149 4.8 4.8 0.00 0.00 0.00 72 1012.1
20260901211628 19 118 1.6 4.8 0.00 0.00 0.00 72 1012.1
20260901211124 19 110 0.0 4.8 0.00 0.00 0.00 73 1012.1
20260901210620 20 105 1.6 1.6 0.00 0.00 0.00 70 1012.1
20260901210116 19 197 8.0 11.3 0.00 0.00 0.00 72 1012.1
20260901205611 19 84 1.6 4.8 0.00 0.00 0.00 73 1012.1
20260901205105 19 93 1.6 9.7 0.00 0.00 0.00 73 1012.1
20260901204602 20 187 4.8 6.4 0.00 0.00 0.00 71 1012.1
20260901204056 20 157 3.2 6.4 0.00 0.00 0.00 70 1012.1
20260901203550 20 121 3.2 3.2 0.00 0.00 0.00 70 1012.1
20260901203046 20 99 0.0 3.2 0.00 0.00 0.00 72 1012.1
20260901202545 19 130 3.2 6.4 0.00 0.00 0.00 73 1012.1
20260901202042 20 129 1.6 4.8 0.00 0.00 0.00 71 1012.1
20260901201537 18 135 3.2 4.8 0.00 0.00 0.00 74 1012.1
20260901201036 19 109 3.2 9.7 0.00 0.00 0.00 72 1012.1
20260901200536 20 113 3.2 6.4 0.00 0.00 0.00 71 1012.1
20260901200031 20 90 3.2 4.8 0.00 0.00 0.00 71 1012.1
20260901195528 20 122 1.6 3.2 0.00 0.00 0.00 70 1011.8
20260901195023 20 81 1.6 4.8 0.00 0.00 0.00 72 1012.1
20260901194518 20 167 4.8 6.4 0.00 0.00 0.00 72 1012.1
20260901194014 20 108 3.2 6.4 0.00 0.00 0.00 70 1012.1
20260901193513 20 91 1.6 3.2 0.00 0.00 0.00 71 1012.1
20260901193014 19 91 1.6 3.2 0.00 0.00 0.00 73 1012.1
20260901192509 19 108 1.6 12.9 0.00 0.00 0.00 72 1012.1
20260901192005 19 103 1.6 3.2 0.00 0.00 0.00 72 1012.1
20260901191500 19 81 3.2 4.8 0.00 0.00 0.00 72 1012.1
20260901190955 19 96 1.6 12.9 0.00 0.00 0.00 74 1011.8
20260901190451 19 108 3.2 3.2 0.00 0.00 0.00 72 1012.1
20260901185949 18 99 1.6 3.2 0.00 0.00 0.00 71 1012.1
20260901185444 18 116 1.6 1.6 0.00 0.00 0.00 73 1012.1